KE4PKT Weather Reports


time (UTC)temp
C
wind
direction
speed
KPH
gust
KPH
rain 1hr
cm
rain 24hr
cm
rain mn
cm
humidity
%
barometer
mb
20260508213048 21 225 4.8 19.3 0.00 0.00 0.00 44 1010.6
20260508211544 21 227 9.7 17.7 0.00 0.00 0.00 40 1011.0
20260508210049 21 204 11.3 27.4 0.00 0.00 0.00 41 1011.2
20260508204538 21 244 8.0 19.3 0.00 0.00 0.00 43 1011.3
20260508203037 22 261 8.0 17.7 0.00 0.00 0.00 45 1011.4
20260508201536 21 205 9.7 19.3 0.00 0.00 0.00 41 1011.4
20260508200043 21 229 8.0 16.1 0.00 0.00 0.00 43 1011.6
20260508194538 21 216 9.7 20.9 0.00 0.00 0.00 43 1011.7
20260508193045 21 220 4.8 14.5 0.00 0.00 0.00 44 1012.0
20260508191540 21 221 6.4 19.3 0.00 0.00 0.00 45 1012.1
20260508190036 21 194 9.7 22.5 0.00 0.00 0.00 48 1012.5
20260508184542 21 225 4.8 19.3 0.00 0.00 0.00 50 1012.8
20260508183041 20 229 8.0 24.1 0.00 0.00 0.00 49 1012.9
20260508181540 20 205 8.0 22.5 0.00 0.00 0.00 47 1013.2
20260508180038 20 225 4.8 16.1 0.00 0.00 0.00 48 1013.4
20260508174539 20 192 4.8 19.3 0.00 0.00 0.00 54 1013.7
20260508173041 20 240 8.0 17.7 0.00 0.00 0.00 47 1014.2
20260508171542 20 229 4.8 16.1 0.00 0.00 0.00 52 1014.5
20260508170040 19 0 4.8 17.7 0.00 0.00 0.00 56 1014.8
20260508164537 19 221 4.8 12.9 0.00 0.00 0.00 53 1015.1
20260508163039 18 225 4.8 16.1 0.00 0.00 0.00 52 1015.4
20260508161545 18 244 4.8 17.7 0.00 0.00 0.00 57 1015.5
20260508160044 18 190 6.4 14.5 0.00 0.00 0.00 56 1015.7
20260508154541 17 239 8.0 16.1 0.00 0.00 0.00 57 1015.8
20260508153042 17 259 6.4 16.1 0.00 0.00 0.00 57 1015.9
20260508151538 17 205 4.8 16.1 0.00 0.00 0.00 60 1016.0
20260508150037 16 230 4.8 14.5 0.00 0.00 0.00 60 1016.1
20260508144537 16 205 6.4 17.7 0.00 0.00 0.00 60 1016.0
20260508143040 15 255 8.0 17.7 0.00 0.00 0.00 58 1016.1
20260508141543 15 217 6.4 14.5 0.00 0.00 0.00 62 1016.0
20260508140043 14 227 4.8 11.3 0.00 0.00 0.00 64 1016.0
20260508134542 13 225 3.2 12.9 0.00 0.00 0.00 67 1016.0
20260508133039 12 221 3.2 14.5 0.00 0.00 0.00 70 1016.1
20260508131541 11 221 4.8 11.3 0.00 0.00 0.00 71 1016.1
20260508130045 10 190 1.6 6.4 0.00 0.00 0.00 77 1015.9
20260508124542 9 221 1.6 8.0 0.00 0.00 0.00 82 1016.1
20260508123038 7 207 1.6 6.4 0.00 0.00 0.00 89 1016.0
20260508121542 6 69 0.0 3.2 0.00 0.00 0.00 92 1016.0
20260508120042 4 0 0.0 0.0 0.00 0.00 0.00 90 1016.0
20260508114602 3 0 0.0 1.6 0.00 0.00 0.00 90 1015.8
20260508113043 3 0 0.0 0.0 0.00 0.00 0.00 89 1015.6
20260508111557 3 0 0.0 0.0 0.00 0.00 0.00 89 1015.5
20260508110041 3 0 0.0 0.0 0.00 0.00 0.00 89 1015.3
20260508104538 3 0 0.0 0.0 0.00 0.00 0.00 88 1015.2
20260508103041 3 0 0.0 0.0 0.00 0.00 0.00 89 1015.2
20260508101541 3 0 0.0 0.0 0.00 0.00 0.00 90 1015.1
20260508100043 3 0 0.0 0.0 0.00 0.00 0.00 90 1014.9
20260508094545 3 0 0.0 0.0 0.00 0.00 0.00 91 1015.1
20260508093041 3 0 0.0 0.0 0.00 0.00 0.00 92 1015.1
20260508091544 3 0 0.0 0.0 0.00 0.00 0.00 92 1015.1
20260508090042 2 0 0.0 0.0 0.00 0.00 0.00 93 1015.2
20260508084539 2 0 0.0 0.0 0.00 0.00 0.00 93 1015.2
20260508083049 2 0 0.0 0.0 0.00 0.00 0.00 93 1015.2
20260508081547 2 0 0.0 0.0 0.00 0.00 0.00 92 1015.1
20260508080041 2 0 0.0 0.0 0.00 0.00 0.00 92 1015.3
20260508074543 2 0 0.0 0.0 0.00 0.00 0.00 92 1015.1
20260508073038 2 0 0.0 0.0 0.00 0.00 0.00 91 1015.2
20260508071536 2 0 0.0 0.0 0.00 0.00 0.00 91 1015.2
20260508070044 3 0 0.0 0.0 0.00 0.00 0.00 91 1015.1
20260508064542 3 0 0.0 0.0 0.00 0.00 0.00 91 1015.1
20260508063044 3 0 0.0 0.0 0.00 0.00 0.00 91 1015.1
20260508061539 3 0 0.0 0.0 0.00 0.00 0.00 91 1015.2
20260508060038 3 0 0.0 0.0 0.00 0.00 0.00 91 1015.4
20260508054543 3 0 0.0 0.0 0.00 0.00 0.00 90 1015.5
20260508053055 3 0 0.0 0.0 0.00 0.00 0.00 90 1015.6
20260508051547 4 0 0.0 0.0 0.00 0.00 0.00 89 1015.6
20260508050042 4 0 0.0 0.0 0.00 0.00 0.00 89 1015.6
20260508044538 4 0 0.0 0.0 0.00 0.00 0.00 88 1015.4
20260508043043 4 0 0.0 0.0 0.00 0.00 0.00 86 1015.3
20260508041539 5 0 0.0 0.0 0.00 0.00 0.00 86 1015.3
20260508040045 5 0 0.0 0.0 0.00 0.00 0.00 86 1015.4
20260508034547 5 0 0.0 0.0 0.00 0.00 0.00 84 1015.5
20260508033041 5 0 0.0 0.0 0.00 0.00 0.00 82 1015.6
20260508031538 6 0 0.0 0.0 0.00 0.00 0.00 81 1015.7
20260508030038 6 0 0.0 0.0 0.00 0.00 0.00 79 1015.5
20260508024554 7 0 0.0 0.0 0.00 0.00 0.00 79 1015.4
20260508023042 7 0 0.0 0.0 0.00 0.00 0.00 78 1015.4
20260508021538 8 0 0.0 0.0 0.00 0.00 0.00 77 1015.3
20260508020040 8 0 0.0 0.0 0.00 0.00 0.00 75 1015.2
20260508014538 9 0 0.0 0.0 0.00 0.00 0.00 71 1014.7
20260508013038 10 0 0.0 0.0 0.00 0.00 0.00 68 1014.7
20260508011543 11 0 0.0 0.0 0.00 0.00 0.00 64 1014.5
20260508010042 12 0 0.0 0.0 0.00 0.00 0.00 61 1014.3
20260508004543 13 0 0.0 0.0 0.00 0.00 0.00 51 1014.0
20260508003038 14 0 0.0 0.0 0.00 0.00 0.00 48 1014.0
20260508001538 15 0 0.0 3.2 0.00 0.00 0.00 46 1013.8
20260508000037 15 0 0.0 11.3 0.00 0.00 0.00 43 1013.6
20260507234549 15 276 3.2 11.3 0.00 0.00 0.00 42 1013.5
20260507233038 16 263 4.8 14.5 0.00 0.00 0.00 40 1013.5
20260507231546 16 283 4.8 16.1 0.00 0.00 0.00 40 1013.4
20260507230038 16 298 6.4 16.1 0.00 0.00 0.00 39 1013.5
20260507224545 16 9 8.0 16.1 0.00 0.00 0.00 36 1013.4
20260507223043 16 311 8.0 16.1 0.00 0.00 0.00 37 1013.4
20260507221542 16 269 8.0 19.3 0.00 0.00 0.00 39 1013.5
20260507220041 17 349 8.0 17.7 0.00 0.00 0.00 41 1013.4
20260507214538 16 309 9.7 17.7 0.00 0.00 0.00 40 1013.4